Overview Statistics Trail Chart Weather Telemetry Raw packets
 

This is the latest recevied weather packets stored in our database for station/object HI3RRR-13. If no packets are shown the sender has not sent any weather packets the latest 10 day(s).

<< 24 25 26 27 28 29 30 >>
Time Temp. Humidity Pressure Rain* Wind** Luminosity Snow
1788278727 31.67° C 64% 1015 hPa 0 mm - - -
1788278126 31.67° C 64% 1015 hPa 0 mm - - -
1788277526 31.67° C 64% 1015 hPa 0 mm - - -
1788276946 31.67° C 64% 1015 hPa 0 mm - - -
1788276324 31.67° C 63% 1016 hPa 0 mm - - -
1788275724 31.67° C 65% 1016 hPa 0 mm - - -
1788275127 33.33° C 70% 1016 hPa 0 mm - - -
1788274522 29.44° C 70% 1016 hPa 0 mm - - -
1788273922 29.44° C 70% 1016 hPa 0 mm - - -
1788273327 29.44° C 78% 1016 hPa 0 mm - - -
1788272720 29.44° C 79% 1016 hPa 0 mm - - -
1788272119 29.44° C 82% 1016 hPa 0 mm - - -
1788271519 29.44° C 90% 1016 hPa 0 mm - - -
1788270918 30° C 90% 1016 hPa 0 mm - - -
1788270317 30° C 90% 1016 hPa 0 mm - - -
1788269717 26.67° C 86% 1016 hPa 0 mm - - -
1788269116 26.67° C 84% 1016 hPa 0 mm - - -
1788268515 26.67° C 87% 1016 hPa 0 mm - - -
1788267915 27.78° C 94% 1016 hPa 0 mm - - -
1788267314 28.33° C 94% 1016 hPa 0 mm - - -
1788266713 28.33° C 94% 1016 hPa 0 mm - - -
1788266113 24.44° C 95% 1016 hPa 0 mm - - -
1788265512 23.89° C 96% 1016 hPa 0 mm - - -
1788264912 23.89° C 96% 1016 hPa 0 mm - - -
1788264311 23.89° C 97% 1016 hPa 0 mm - - -

* Rain latest hour (hover to see other rain measurements)
** Current wind speed in m/s (hover to see current wind gust speed)